Regional Weather Roundup
Issued by NWS

Home | Current Version | Previous Version | Text Only | Print | Product List | Glossary On
Versions: 1 2 3 4 5 6 7 8 9 10 11 12 13 14 15 16 17 18 19 20 21 22 23 24 25 26 27 28 29 30 31 32 33 34 35 36 37 38 39 40 41 42 43 44 45 46 47 48 49 50
000
ASUS43 KMPX 021510
RWRMN
WEATHER ROUNDUP FOR MINNESOTA
NATIONAL WEATHER SERVICE TWIN CITIES/CHANHASSEN MN
1000 AM CDT THU OCT 02 2014


NOTE: "FAIR" INDICATES FEW OR NO CLOUDS BELOW 12,000 FEET WITH NO
SIGNIFICANT WEATHER AND/OR OBSTRUCTIONS TO VISIBILITY. N/A MEANS
CURRENT SKY AND/OR WEATHER CONDITIONS ARE NOT AVAILABLE.

MNZ060>063-068>070-021600-
   Twin Cities Metro

CITY           SKY/WX    TMP DP  RH WIND       PRES   REMARKS
TWIN CITIES    CLOUDY    59  56  89 NE5       29.83F
ST PAUL        CLOUDY    60  58  92 CALM      29.84S FOG
CRYSTAL        CLOUDY    60  54  80 N5        29.82F
BLAINE         CLOUDY    59  57  94 CALM      29.84F
LAKEVILLE      CLOUDY    57  57 100 CALM      29.83F FOG
EDEN PRAIRIE   CLOUDY    60  56  86 NE3       29.82F FOG
SOUTH ST PAUL  CLOUDY    60  58  92 CALM      29.83F FOG
LAKE ELMO      CLOUDY    59  57  94 CALM      29.84F FOG
$$
MNZ001>005-007-008-013>017-022>024-027-028-021600-
   Northwest Minnesota

CITY           SKY/WX    TMP DP  RH WIND       PRES   REMARKS
BEMIDJI        FAIR      52  48  87 W7        29.83S
HALLOCK        FAIR      48  46  93 W7        29.80S
ROSEAU         FAIR      52  46  82 CALM      29.79S
WARROAD        FAIR      50  46  87 SW3       29.79S
THIEF RVR FALL FAIR      50  46  87 W5        29.81F
CROOKSTON      FAIR      52  48  87 W3        29.82F
FOSSTON        FAIR      48  46  93 CALM      29.83S
DETROIT LAKES  FAIR      52  46  82 CALM      29.85S
PARK RAPIDS    PTSUNNY   51  49  92 NW8       29.83F
MAHNOMEN       FAIR      48  47  93 S7        29.83S
$$
MNZ006-009>011-018-025>026-021600-
   North Central Minnesota

CITY           SKY/WX    TMP DP  RH WIND       PRES   REMARKS
BAUDETTE       FAIR      54  48  80 CALM      29.79S
FLAG ISLAND    FAIR      52  46  82 W6        29.76S
INTL FALLS     CLOUDY    55  50  83 W7        29.80R
WASKISH        FAIR      54  48  82 CALM      29.82
BIG FORK       PTSUNNY   55  54  94 SW6       29.82S
LONGVILLE      CLOUDY    52  52 100 CALM      29.82F
GRAND RAPIDS   CLOUDY    52  48  87 SW3       29.83F
CRANE LAKE     CLOUDY    54  52  94 SW5       29.83R
ORR            CLOUDY    52  50  93 CALM      29.80R
COOK           CLOUDY    54  52  94 SW6       29.82S
WALKER         FAIR      54  49  84 W6        29.82F
$$
MNZ012-019>021-037-021600-
   Northeast Minnesota

CITY           SKY/WX    TMP DP  RH WIND       PRES   REMARKS
DULUTH         DRIZZLE   53  50  89 SW5       29.84F FOG
ELY            CLOUDY    55  50  82 SW6       29.82S
HIBBING        CLOUDY    54  51  90 SW6       29.83S
EVELETH          N/A    N/A N/A N/A MISG        N/A
DULUTH HARBOR  CLOUDY    55  52  88 CALM      29.85R
TWO HARBORS    CLOUDY    54  48  82 CALM      29.82F
SILVER BAY     CLOUDY    52  52 100 CALM      29.82F
GRAND MARAIS     N/A     53  51  93 CALM      29.83F
G MARAIS ARPRT CLOUDY    50  48  93 CALM      29.84S
$$
MNZ029>031-032-039>041-046>048-054>057-064-021600-
   West Central Minnesota

CITY           SKY/WX    TMP DP  RH WIND       PRES   REMARKS
FERGUS FALLS   PTSUNNY   52  48  87 CALM      29.86S
WHEATON        PTSUNNY   52  48  87 CALM      29.88S
MORRIS         LGT RAIN  52  48  87 CALM      29.86S
ALEXANDRIA     LGT RAIN  52  49  89 NW5       29.87S
ELBOW LAKE     PTSUNNY   50  48  92 CALM      29.86S
WADENA         FAIR      52  48  87 NW3       29.84S
GLENWOOD       FAIR      52  50  93 W7        29.86S
APPLETON       LGT RAIN  54  50  87 CALM      29.87S
BENSON         RAIN      52  52 100 N7        29.88R
ORTONVILLE     LGT RAIN  54  48  82 CALM      29.88R
MADISON        RAIN      55  52  88 W5        29.89R
WILLMAR        FAIR      54  52  94 NW5       29.87S
$$
MNZ033>034-036-042>043-049>051-058-059-021600-
   Central Minnesota

CITY           SKY/WX    TMP DP  RH WIND       PRES   REMARKS
ST CLOUD       CLOUDY    56  51  84 CALM      29.85S
SAUK CENTRE    FAIR      51  51  99 CALM      29.86S
PAYNESVILLE    FAIR      50  51 100 CALM      29.86F
AITKIN         CLOUDY    55  50  82 CALM      29.82S
PINE RIVER     PTSUNNY   50  50 100 CALM      29.86F
BRAINERD       CLOUDY    50  50 100 SW3       29.84S FOG
STAPLES        FAIR      52  52 100 W6        29.84S
LONG PRAIRIE   FAIR      50  50 100 W3        29.86S
LITTLE FALLS   CLOUDY    50  48  93 CALM      29.86R FOG
LITCHFIELD     FAIR      55  55 100 CALM      29.86S
BUFFALO        CLOUDY    57  52  82 CALM      29.85F
MAPLE LAKE     CLOUDY    57  54  91 CALM      29.86S FOG
$$
MNZ037-044-045-052-053-021600-
   East Central Minnesota

CITY           SKY/WX    TMP DP  RH WIND       PRES   REMARKS
PRINCETON      CLOUDY    57  54  88 E1        29.86R
MORA           CLOUDY    54  50  87 CALM      29.87S
CAMBRIDGE      PTSUNNY   59  50  72 CALM      29.83F
RUSH CITY      CLOUDY    55  52  89 CALM      29.85S
MOOSE LAKE     CLOUDY    54  52  94 CALM      29.83R
HINCKLEY       CLOUDY    55  54  94 CALM      29.84S
CLOQUET        CLOUDY    54  52  94 CALM      29.84S
MCGREGOR       CLOUDY    52  52 100 W5        29.84S
$$
MNZ071>073-080-081-089-090-097-098-021600-
   Southwest Minnesota

CITY           SKY/WX    TMP DP  RH WIND       PRES   REMARKS
MONTEVIDEO     DRIZZLE   52  52 100 N5        29.89R
GRANITE FALLS  LGT RAIN  53  51  94 NW5       29.89S
CANBY          LGT RAIN  53  50  90 W5        29.91R
MARSHALL       FAIR      54  46  76 NW7       29.88R
REDWOOD FALLS  CLOUDY    53  51  93 NW5       29.87R
OLIVIA         DRIZZLE   54  52  94 NW3       29.86S
PIPESTONE      LGT RAIN  52  50  93 N3        29.89F
WINDOM         RAIN      54  52  94 NW3       29.89R
WORTHINGTON    CLOUDY    54  50  87 N8        29.89S
JACKSON        TSTM      52  50  93 NW9       29.88R
TRACY          DRIZZLE   53  51  94 NW6       29.89S
SLAYTON        CLOUDY    52  51  97 CALM      29.90S
$$
MNZ065>067-074>077-082>085-091>093-021600-
   South Central Minnesota

CITY           SKY/WX    TMP DP  RH WIND       PRES   REMARKS
MANKATO        CLOUDY    57  54  88 N8        29.83S VSB<1/4
NEW ULM        PTSUNNY   55  55 100 N3        29.85R FOG
ST JAMES       HVY RAIN  55  55 100 NW6       29.86R
FAIRMONT       CLOUDY    57  54  88 N8        29.83R VSB 1/2
GLENCOE        CLOUDY    58  56  93 N3        29.84S FOG
FARIBAULT      FOG       57  57 100 CALM      29.83F VSB<1/4
OWATONNA       CLOUDY    59  57  94 NE5       29.83S FOG
WASECA         CLOUDY    57  54  88 NE7       29.83F FOG
ALBERT LEA     FOG       59  59 100 CALM      29.81F VSB 3/4
$$
MNZ078>079-086>088-094>096-021600-
   Southeast Minnesota

CITY           SKY/WX    TMP DP  RH WIND       PRES   REMARKS
ROCHESTER      FOG       59  58  96 NE5       29.83F VSB<1/4
RED WING       CLOUDY    57  57 100 CALM      29.83S FOG
STANTON        CLOUDY    59  56  91 CALM      29.82F FOG
DODGE CENTER   FOG       59  57  94 SE5       29.83S VSB 1/4
WINONA         CLOUDY    55  55 100 CALM      29.83F FOG
AUSTIN         FOG       61  59  94 CALM      29.81F VSB 1/2
PRESTON        FOG       58  57  98 SE3       29.84S VSB<1/4
$$
ABBREVIATIONS USED IN REMARKS
   TC - TEMPERATURES IN CELSIUS
  WCI - WIND CHILL INDEX
   HX - HEAT INDEX
  VSB - VISIBILITY
$$



USA.gov is the U.S. government's official web portal to all federal, state and local government web resources and services.